Latest Weather Observations for Mildura

IDN60801

Issued at 5:03 pm EST Monday 27 April 2015 (issued every 30 minutes, with the page automatically refreshed every 10 minutes)

About weather observations | Map of weather stations | Latest weather observations for NSW | Other Formats
Station Details ID: 076031 Name: MILDURA AIRPORT Lat: -34.24 Lon: 142.09 Height: 50.0 m
Data from the previous 72 hours. | See also: Recent months at Mildura
Date/Time
EST
Temp
°C
App
Temp
°C
Dew
Point
Rel
Hum
%
Delta-T
°C
Wind Press
QNH
hPa
Press
MSL
hPa
Rain
since 9 am
mm
Dir
 
Spd
km/h
Gust
km/h
Spd
kts
Gust
kts
27/05:00pm 16.2 13.0 5.2 48 5.2 SSW 11 22 6 12 1025.2 1025.1 0.0
27/04:30pm 16.3 12.8 5.6 49 5.1 SSW 13 22 7 12 1025.1 1025.0 0.0
27/04:00pm 16.4 13.2 5.1 47 5.4 SW 11 19 6 10 1025.1 1025.0 0.0
27/03:30pm 16.5 13.4 5.5 48 5.3 SSW 11 20 6 11 1025.0 1024.9 0.0
27/03:00pm 16.7 12.6 6.2 50 5.1 SSW 17 24 9 13 1025.0 1024.9 0.0
27/02:30pm 16.4 12.5 5.4 48 5.3 SW 15 28 8 15 1025.0 1024.9 0.0
27/02:00pm 16.1 12.5 6.8 54 4.6 SSW 15 22 8 12 1025.0 1024.9 0.0
27/01:30pm 15.8 12.1 6.3 53 4.6 SSW 15 22 8 12 1025.3 1025.2 0.0
27/01:00pm 15.8 12.1 6.3 53 4.6 SSW 15 22 8 12 1025.5 1025.4 0.0
27/12:30pm 15.9 12.6 6.3 53 4.7 S 13 20 7 11 1025.9 1025.8 0.0
27/12:00pm 15.4 11.6 5.9 53 4.5 SSW 15 24 8 13 1026.4 1026.3 0.0
27/11:30am 15.0 10.5 6.3 56 4.2 SSW 19 28 10 15 1026.8 1026.7 0.0
27/11:00am 14.6 10.9 6.2 57 4.0 SSW 15 22 8 12 1026.9 1026.8 0.0
27/10:30am 14.0 10.3 6.4 60 3.7 S 15 20 8 11 1026.9 1026.8 0.0
27/10:00am 13.5 10.2 6.6 63 3.3 SSW 13 22 7 12 1026.9 1026.8 0.0
27/09:30am 13.0 9.4 6.6 65 3.1 SSW 15 24 8 13 1026.8 1026.7 0.0
27/09:00am 12.9 9.9 5.8 62 3.3 SW 11 19 6 10 1026.6 1026.5 0.0
27/08:30am 12.3 10.0 5.5 63 3.1 SW 7 11 4 6 1026.4 1026.3 0.0
27/08:00am 11.8 9.4 5.4 65 2.9 SW 7 9 4 5 1026.0 1025.9 0.0
27/07:30am 11.2 8.8 5.3 67 2.7 WSW 7 9 4 5 1025.8 1025.7 0.0
27/07:00am 11.3 9.0 5.0 65 2.9 SW 6 7 3 4 1025.6 1025.5 0.0
27/06:30am 11.4 9.0 5.1 65 2.9 SW 7 11 4 6 1025.5 1025.4 0.0
27/06:00am 11.5 9.1 5.2 65 2.9 SSW 7 9 4 5 1025.4 1025.3 0.0
27/05:30am 11.6 9.1 4.8 63 3.1 SSW 7 11 4 6 1025.3 1025.2 0.0
27/05:00am 11.7 9.2 4.7 62 3.2 SSW 7 11 4 6 1025.1 1025.0 0.0
27/04:30am 11.9 9.0 4.6 61 3.3 SSW 9 19 5 10 1025.0 1024.9 0.0
27/04:00am 12.1 8.3 4.1 58 3.6 SSW 13 26 7 14 1024.9 1024.8 0.0
27/03:30am 12.4 8.6 4.1 57 3.8 SSW 13 20 7 11 1024.8 1024.7 0.0
27/03:00am 12.4 8.3 4.6 59 3.5 SSW 15 22 8 12 1024.8 1024.7 0.0
27/02:30am 12.5 8.9 5.0 60 3.5 SW 13 19 7 10 1024.8 1024.7 0.0
27/02:00am 12.6 9.3 4.8 59 3.6 SW 11 19 6 10 1024.8 1024.7 0.0
27/01:30am 12.8 9.5 4.3 56 3.9 SW 11 17 6 9 1024.7 1024.6 0.0
27/01:00am 12.9 9.1 4.1 55 4.0 SW 13 24 7 13 1024.8 1024.7 0.0
27/12:30am 12.9 10.0 4.6 57 3.8 SW 9 13 5 7 1024.9 1024.8 0.0
27/12:00am 13.1 9.5 5.0 58 3.7 SW 13 19 7 10 1025.0 1024.9 0.0
 
Date/Time
EST
Temp
°C
App
Temp
°C
Dew
Point
Rel
Hum
%
Delta-T
°C
Wind Press
QNH
hPa
Press
MSL
hPa
Rain
since 9 am
mm
Dir
 
Spd
km/h
Gust
km/h
Spd
kts
Gust
kts
26/11:30pm 13.1 9.7 6.0 62 3.4 SW 13 20 7 11 1024.9 1024.8 0.0
26/11:00pm 13.3 10.0 6.2 62 3.4 SW 13 19 7 10 1024.9 1024.8 0.0
26/10:30pm 13.4 10.1 6.5 63 3.3 WSW 13 19 7 10 1024.8 1024.7 0.0
26/10:00pm 13.7 10.4 6.6 62 3.4 SW 13 20 7 11 1024.7 1024.6 0.0
26/09:30pm 14.0 10.7 6.4 60 3.7 SW 13 19 7 10 1024.5 1024.4 0.0
26/09:00pm 14.6 10.5 4.6 51 4.6 SW 15 24 8 13 1024.2 1024.1 0.0
26/08:30pm 14.7 10.2 4.4 50 4.8 SSW 17 26 9 14 1024.1 1024.0 0.0
26/08:00pm 14.6 11.1 5.4 54 4.3 SSW 13 22 7 12 1023.8 1023.7 0.0
26/07:30pm 14.5 11.9 6.1 57 4.0 SSW 9 20 5 11 1023.6 1023.5 0.0
26/07:00pm 14.6 12.1 6.4 58 3.9 SSW 9 17 5 9 1023.4 1023.3 0.0
26/06:30pm 15.0 11.1 5.5 53 4.5 SSW 15 26 8 14 1023.1 1023.0 0.0
26/06:00pm 15.0 11.8 6.8 58 4.0 SW 13 20 7 11 1022.7 1022.6 0.0
26/05:30pm 15.2 12.0 6.7 57 4.2 SW 13 24 7 13 1022.5 1022.4 0.0
26/05:00pm 15.4 11.7 6.1 54 4.5 SW 15 28 8 15 1022.4 1022.3 0.0
26/04:30pm 15.5 11.5 6.8 56 4.3 SSW 17 30 9 16 1022.4 1022.3 0.0
26/04:00pm 15.5 11.5 6.8 56 4.3 SSW 17 30 9 16 1022.1 1022.0 0.0
26/03:30pm 15.6 11.6 6.6 55 4.4 SSW 17 30 9 16 1022.0 1021.9 0.0
26/03:00pm 15.8 12.3 7.1 56 4.3 SSW 15 28 8 15 1021.9 1021.8 0.0
26/02:30pm 15.3 10.9 6.6 56 4.2 SSW 19 32 10 17 1021.8 1021.7 0.0
26/02:00pm 15.4 11.3 7.7 60 3.8 SSW 19 28 10 15 1021.9 1021.8 0.0
26/01:30pm 15.1 10.6 6.9 58 4.0 S 20 32 11 17 1022.0 1021.9 0.0
26/01:00pm 15.0 10.6 7.3 60 3.8 S 20 30 11 16 1022.1 1022.0 0.0
26/12:30pm 15.0 10.6 7.3 60 3.8 SSW 20 32 11 17 1022.2 1022.1 0.0
26/12:00pm 14.8 10.3 7.1 60 3.8 SSW 20 33 11 18 1022.3 1022.2 0.0
26/11:30am 14.4 9.9 7.0 61 3.6 SSW 20 33 11 18 1022.6 1022.5 0.0
26/11:00am 13.9 9.5 7.2 64 3.3 S 20 37 11 20 1022.7 1022.6 0.0
26/10:30am 13.0 8.7 7.0 67 2.9 SSW 19 32 10 17 1022.8 1022.7 0.0
26/10:00am 12.9 9.1 7.6 70 2.6 SSW 17 30 9 16 1022.8 1022.7 0.0
26/09:30am 12.2 8.4 7.7 74 2.2 SSW 17 24 9 13 1022.6 1022.5 0.0
26/09:00am 11.6 8.3 7.9 78 1.8 SSW 15 22 8 12 1022.4 1022.3 1.0
26/08:30am 10.7 7.0 7.8 82 1.4 SSW 17 28 9 15 1021.9 1021.8 1.0
26/08:00am 9.7 6.7 7.8 88 0.9 SW 13 19 7 10 1021.6 1021.5 1.0
26/07:30am 9.1 6.0 7.4 89 0.8 WSW 13 17 7 9 1020.9 1020.8 1.0
26/07:00am 8.8 6.0 7.1 89 0.8 WSW 11 17 6 9 1020.6 1020.5 1.0
26/06:30am 9.4 6.3 7.3 87 1.0 SW 13 17 7 9 1020.3 1020.2 1.0
26/06:00am 9.9 6.9 7.5 85 1.1 SW 13 20 7 11 1020.1 1020.0 1.0
26/05:30am 9.9 7.0 8.0 88 0.9 SW 13 20 7 11 1019.8 1019.7 1.0
26/05:00am 9.9 7.9 8.7 92 0.6 SW 9 17 5 9 1019.3 1019.2 1.0
26/04:30am 10.3 8.0 9.1 92 0.6 SSW 11 19 6 10 1019.2 1019.1 1.0
26/04:00am 10.6 8.3 9.0 90 0.8 SSW 11 17 6 9 1019.0 1018.9 1.0
26/03:30am 11.1 7.8 9.4 89 0.9 SSW 17 26 9 14 1018.8 1018.7 1.0
26/03:00am 11.0 8.1 9.8 92 0.6 SSW 15 20 8 11 1018.5 1018.4 1.0
26/02:30am 11.3 8.4 9.7 90 0.8 SSW 15 22 8 12 1018.1 1018.0 1.0
26/02:00am 12.0 8.8 10.1 88 1.0 SSW 17 28 9 15 1017.7 1017.6 1.0
26/01:30am 12.7 9.2 10.1 84 1.3 SSW 19 28 10 15 1017.7 1017.6 1.0
26/01:00am 12.8 9.3 10.3 85 1.3 SSW 19 33 10 18 1017.5 1017.4 1.0
26/12:30am 12.5 9.4 10.4 87 1.1 SW 17 24 9 13 1017.5 1017.4 1.0
26/12:00am 12.3 9.9 10.0 86 1.2 SW 13 20 7 11 1017.2 1017.1 1.0
 
Date/Time
EST
Temp
°C
App
Temp
°C
Dew
Point
Rel
Hum
%
Delta-T
°C
Wind Press
QNH
hPa
Press
MSL
hPa
Rain
since 9 am
mm
Dir
 
Spd
km/h
Gust
km/h
Spd
kts
Gust
kts
25/11:30pm 12.0 9.1 9.7 86 1.2 SW 15 22 8 12 1016.9 1016.8 1.0
25/11:00pm 12.2 9.6 9.2 82 1.5 SW 13 22 7 12 1016.5 1016.5 1.0
25/10:30pm 12.0 9.4 9.2 83 1.4 SW 13 19 7 10 1016.1 1016.1 1.0
25/10:00pm 11.9 9.0 9.5 85 1.2 WSW 15 20 8 11 1015.9 1015.9 1.0
25/09:30pm 11.7 9.1 9.4 86 1.2 WSW 13 20 7 11 1015.5 1015.5 1.0
25/09:00pm 11.8 9.2 9.4 85 1.2 WSW 13 17 7 9 1015.2 1015.2 1.0
25/08:30pm 12.0 9.4 9.4 84 1.3 WSW 13 20 7 11 1014.8 1014.8 1.0
25/08:00pm 12.1 9.5 9.3 83 1.4 W 13 19 7 10 1014.3 1014.3 1.0
25/07:30pm 12.8 9.8 9.3 79 1.8 WSW 15 20 8 11 1014.1 1014.1 1.0
25/07:00pm 13.1 10.4 9.0 76 2.1 WSW 13 19 7 10 1013.8 1013.8 1.0
25/06:30pm 13.8 10.7 8.8 72 2.5 WSW 15 24 8 13 1013.2 1013.1 1.0
25/06:00pm 14.3 11.4 6.6 60 3.7 WSW 11 17 6 9 1012.7 1012.6 1.0
25/05:30pm 15.1 11.9 6.7 57 4.1 SW 13 20 7 11 1011.9 1011.8 1.0
25/05:00pm 15.0 11.0 6.8 58 4.0 SSW 17 26 9 14 1011.8 1011.7 1.0
25/04:30pm 17.2 12.5 5.2 45 5.8 SW 19 30 10 16 1011.2 1011.1 1.0
25/04:00pm 16.7 12.0 6.2 50 5.1 SSW 20 33 11 18 1011.2 1011.1 1.0
25/03:30pm 16.7 12.3 7.6 55 4.6 SW 20 33 11 18 1011.1 1011.0 1.0
25/03:00pm 16.4 13.5 9.6 64 3.6 SW 15 24 8 13 1011.1 1011.0 1.0
25/02:30pm 14.3 11.3 9.1 71 2.7 SSW 15 22 8 12 1011.0 1010.9 1.0
25/02:00pm 13.1 9.2 8.8 75 2.2 SSW 19 28 10 15 1011.0 1010.9 1.0
25/01:30pm 12.7 9.2 8.6 76 2.0 SSW 17 28 9 15 1010.7 1010.6 1.0
25/01:00pm 12.1 8.6 8.8 80 1.7 SSW 17 24 9 13 1010.2 1010.1 1.0
25/12:30pm 11.7 8.9 8.6 81 1.5 S 13 22 7 12 1010.1 1010.0 1.0
25/12:00pm 11.4 7.3 8.8 84 1.3 S 20 33 11 18 1010.1 1010.0 1.0
25/11:30am 11.1 7.5 9.7 91 0.7 S 19 33 10 18 1009.9 1009.8 0.8
25/11:00am 11.3 7.5 9.9 91 0.7 S 20 33 11 18 1009.6 1009.5 0.6
25/10:30am 10.9 7.2 9.3 90 0.8 SSE 19 28 10 15 1009.2 1009.1 0.6
25/10:00am 10.2 6.5 8.0 86 1.1 SSE 17 26 9 14 1008.6 1008.5 0.6
25/09:55am 10.2 7.5 9.0 92 0.6 SSE 13 19 7 10 1008.5 1008.4 0.6
25/09:30am 8.9 5.6 8.1 95 0.4 S 15 22 8 12 1008.3 1008.2 0.6
25/09:29am 8.8 5.5 8.0 95 0.4 S 15 22 8 12 1008.3 1008.2 0.6
25/09:13am 8.8 5.0 7.7 93 0.5 SSE 17 32 9 17 1007.9 1007.8 0.2
25/09:00am 10.0 6.5 8.9 93 0.5 SE 17 20 9 11 1007.7 1007.6 8.6
25/08:55am 9.9 6.8 8.7 92 0.6 ESE 15 20 8 11 1007.6 1007.5 8.6
25/08:30am 10.0 7.8 9.4 96 0.3 E 11 15 6 8 1007.1 1007.0 8.6
25/08:00am 9.7 7.4 9.1 96 0.3 E 11 15 6 8 1006.6 1006.5 8.6
25/07:35am 9.5 7.2 9.0 97 0.2 ENE 11 15 6 8 1006.3 1006.2 8.6
25/07:30am 9.5 6.8 9.0 97 0.2 ENE 13 17 7 9 1006.2 1006.1 8.6
25/07:17am 9.5 7.6 9.0 97 0.2 ENE 9 15 5 8 1006.0 1005.9 8.6
25/07:14am 9.5 7.6 9.0 97 0.2 ENE 9 13 5 7 1006.0 1005.9 8.4
25/07:00am 9.4 7.0 8.8 96 0.3 ENE 11 17 6 9 1005.9 1005.8 8.4
25/06:30am 9.5 6.8 8.9 96 0.3 NE 13 15 7 8 1005.8 1005.7 7.0
25/06:00am 9.6 6.9 8.8 95 0.4 NNE 13 17 7 9 1005.6 1005.5 4.6
25/05:51am 9.6 6.8 8.7 94 0.4 NNE 13 17 7 9 1005.5 1005.4 4.0
25/05:43am 9.6 7.2 8.7 94 0.4 NNE 11 15 6 8 1005.6 1005.5 3.4
25/05:30am 9.6 7.6 8.7 94 0.4 N 9 15 5 8 1005.6 1005.5 2.6
25/05:09am 9.9 7.4 8.3 90 0.8 NNW 11 19 6 10 1005.7 1005.6 1.4
25/05:00am 10.0 7.5 8.3 89 0.8 N 11 17 6 9 1005.7 1005.6 0.8
25/04:30am 10.4 7.4 7.8 84 1.3 N 13 17 7 9 1005.7 1005.6 0.4
25/04:00am 10.2 7.8 8.6 90 0.8 NNE 11 17 6 9 1005.8 1005.7 0.4
25/03:30am 9.6 7.2 8.7 94 0.4 NE 11 13 6 7 1005.9 1005.8 0.4
25/03:00am 9.5 7.9 8.7 95 0.4 NNE 7 9 4 5 1006.3 1006.2 0.4
25/02:30am 9.4 7.4 8.8 96 0.3 NNE 9 11 5 6 1006.8 1006.7 0.4
25/02:00am 8.9 6.8 8.3 96 0.3 NE 9 11 5 6 1007.1 1007.0 0.4
25/01:30am 9.4 7.9 8.5 94 0.4 N 6 7 3 4 1007.6 1007.5 0.2
25/01:00am 10.3 8.4 9.1 92 0.6 N 9 11 5 6 1007.9 1007.8 0.2
25/12:30am 11.0 9.3 9.8 92 0.6 NNW 9 13 5 7 1008.1 1008.0 0.2
25/12:00am 11.0 9.7 9.8 92 0.6 NNW 7 9 4 5 1008.2 1008.1 0.2
 
Date/Time
EST
Temp
°C
App
Temp
°C
Dew
Point
Rel
Hum
%
Delta-T
°C
Wind Press
QNH
hPa
Press
MSL
hPa
Rain
since 9 am
mm
Dir
 
Spd
km/h
Gust
km/h
Spd
kts
Gust
kts
24/11:30pm 10.8 9.4 9.6 92 0.6 N 7 9 4 5 1008.2 1008.1 0.2
24/11:00pm 11.6 10.4 10.2 91 0.7 N 7 9 4 5 1008.6 1008.5 0.2
24/10:30pm 12.3 11.1 10.4 88 1.0 NNW 7 9 4 5 1008.7 1008.6 0.2
24/10:00pm 12.3 11.2 10.5 89 0.9 N 7 11 4 6 1008.8 1008.7 0.2
24/09:30pm 12.2 12.4 10.6 90 0.8 CALM 0 0 0 0 1008.7 1008.6 0.2
24/09:00pm 12.6 11.6 10.3 86 1.2 W 6 9 3 5 1008.7 1008.6 0.2
24/08:30pm 12.8 11.1 9.8 82 1.5 NW 9 13 5 7 1009.0 1008.9 0.0
24/08:00pm 13.5 11.3 9.4 76 2.1 WSW 11 15 6 8 1008.7 1008.6 0.0
24/07:30pm 14.1 10.5 8.5 69 2.8 WSW 17 28 9 15 1008.5 1008.4 0.0
24/07:00pm 15.3 11.4 7.1 58 4.1 WSW 17 35 9 19 1008.2 1008.1 0.0
24/06:30pm 15.7 11.6 7.7 59 4.0 WSW 19 32 10 17 1007.9 1007.8 0.0
24/06:00pm 16.4 12.4 9.1 62 3.8 WSW 20 32 11 17 1007.3 1007.2 0.0
24/05:30pm 17.3 12.3 9.5 60 4.1 WSW 26 37 14 20 1006.8 1006.7 0.0

Other Formats:

Comma delimited format used in spreadsheet applications
http://www.bom.gov.au/fwo/IDN60801/IDN60801.94693.axf

JavaScript Object Notation format (JSON) in row-major order
http://www.bom.gov.au/fwo/IDN60801/IDN60801.94693.json